الكل
Baia Mare Airport (Baia Mare) BAY حالة الطقس
|
Baia Mare (BAY / LRBM)
سماء صافية
رياح خفيفة |
|
23 °C |
توقع منطقة محطة المطارBAY
| Date | Time (EEST) | Flight Rules | Wind Dir. | Speed | Type | Height AGL (ft) | Visibility | Remarks | ||||||
|---|---|---|---|---|---|---|---|---|---|---|---|---|---|---|
محفوظات أحدث تقرير روتيني عن حالة الطقس من أجل الطيران (الميتار )BAY
| Date | Time (EEST) | Flight Rules | Wind Dir. | Speed | Type | Height AGL (ft) | Visibility | Temp (°C) | Temp (°F) | Dew Point (°C) | Dew Point (°F) | Rel. Humid. | Pressure | Density Altitude | Remarks |
|---|---|---|---|---|---|---|---|---|---|---|---|---|---|---|---|
| 05-سبت | 09:30 | VFR | 100° | 8 kt | 10000 meters | 23° | 73° | 13° | 55° | 53% | 1015 mb | 1,511 ft | |||
| 05-سبت | 09:00 | VFR | 80° | 6 kt | 10000 meters | 22° | 71° | 13° | 55° | 57% | 1015 mb | 1,391 ft | |||
| 05-سبت | 08:30 | VFR | 80° | 5 kt | 10000 meters | 21° | 69° | 13° | 55° | 60% | 1015 mb | 1,271 ft | |||
| 05-سبت | 08:00 | VFR | 80° | 5 kt | 10000 meters | 19° | 66° | 12° | 53° | 64% | 1015 mb | 1,031 ft | |||
| 05-سبت | 07:30 | VFR | 70° | 6 kt | 10000 meters | 17° | 62° | 12° | 53° | 72% | 1015 mb | 791 ft | |||
| 05-سبت | 07:00 | VFR | 80° | 7 kt | 10000 meters | 17° | 62° | 12° | 53° | 72% | 1015 mb | 791 ft | |||
| 05-سبت | 06:30 | VFR | 80° | 7 kt | 10000 meters | 17° | 62° | 12° | 53° | 72% | 1015 mb | 791 ft | |||
| 05-سبت | 06:00 | VFR | 90° | 7 kt | 10000 meters | 17° | 62° | 12° | 53° | 72% | 1015 mb | 791 ft | |||
| 05-سبت | 05:30 | VFR | 90° | 8 kt | 10000 meters | 16° | 60° | 12° | 53° | 77% | 1015 mb | 671 ft | |||
| 05-سبت | 05:00 | VFR | 80° | 8 kt | 10000 meters | 17° | 62° | 12° | 53° | 72% | 1015 mb | 791 ft | |||
| 05-سبت | 04:30 | VFR | 80° | 5 kt | 10000 meters | 17° | 62° | 12° | 53° | 72% | 1015 mb | 791 ft | |||
| 05-سبت | 04:00 | VFR | Variable | 2 kt | 10000 meters | 17° | 62° | 12° | 53° | 72% | 1015 mb | 791 ft | |||
| 05-سبت | 03:30 | VFR | Variable | 2 kt | 10000 meters | 16° | 60° | 12° | 53° | 77% | 1015 mb | 671 ft | |||
| 05-سبت | 03:00 | VFR | Variable | 2 kt | 10000 meters | 17° | 62° | 12° | 53° | 72% | 1016 mb | 762 ft | |||
| 05-سبت | 02:30 | VFR | Calm | 10000 meters | 17° | 62° | 12° | 53° | 72% | 1016 mb | 762 ft | ||||
| 05-سبت | 02:00 | VFR | Variable | 2 kt | 10000 meters | 17° | 62° | 12° | 53° | 72% | 1016 mb | 762 ft | |||
| 05-سبت | 01:30 | VFR | Variable | 2 kt | 10000 meters | 18° | 64° | 12° | 53° | 68% | 1016 mb | 882 ft | |||
| 05-سبت | 01:00 | VFR | 40° | 3 kt | 10000 meters | 17° | 62° | 11° | 51° | 68% | 1016 mb | 762 ft | |||
| 05-سبت | 00:30 | VFR | 40° | 3 kt | 10000 meters | 18° | 64° | 12° | 53° | 68% | 1016 mb | 882 ft | |||
| 05-سبت | 00:00 | VFR | 30° | 3 kt | 10000 meters | 19° | 66° | 11° | 51° | 60% | 1016 mb | 1,002 ft | |||
| 04-سبت | 23:30 | VFR | Variable | 2 kt | 10000 meters | 18° | 64° | 11° | 51° | 64% | 1016 mb | 882 ft | |||
| 04-سبت | 23:00 | VFR | 20° | 4 kt | 10000 meters | 19° | 66° | 11° | 51° | 60% | 1016 mb | 1,002 ft | |||
| 04-سبت | 22:30 | VFR | 50° | 3 kt | 10000 meters | 19° | 66° | 11° | 51° | 60% | 1016 mb | 1,002 ft | |||
| 04-سبت | 22:00 | VFR | 40° | 3 kt | 10000 meters | 20° | 68° | 11° | 51° | 56% | 1016 mb | 1,122 ft |
تسجيل الدخول
| مُتصفحك غير مُدعَّم. قم بترقية متصفحك |
